Regional Weather Roundup
Issued by NWS

Home | Current Version | Previous Version | Graphics & Text | Print | Product List | Glossary On
Versions: 1 2 3 4 5 6 7 8 9 10 11 12 13 14 15 16 17 18 19 20 21 22 23 24 25 26 27 28 29 30 31 32 33 34 35 36 37 38 39 40 41 42 43 44 45 46 47 48 49 50
981
ASUS43 KOAX 241102
RWRNE

WEATHER ROUNDUP FOR NEBRASKA
NATIONAL WEATHER SERVICE OMAHA NE
500 AM CST FRI FEB 24 2017

NOTES: SATELLITE DATA IS BEING USED TO AUGMENT CLOUD COVER ABOVE
       12000 FEET.
       "FAIR" INDICATES FEW OR NO CLOUDS BELOW 12,000 FEET WITH NO
       SIGNIFICANT WEATHER AND/OR OBSTRUCTIONS TO VISIBILITY.

  * THESE STATIONS DO NOT REPORT WEATHER SUCH AS RAIN...SNOW OR FOG.

NEZ001>004-019>022-054>056-241200-
NEBRASKA PANHANDLE

CITY           SKY/WX    TMP DP  RH WIND       PRES   REMARKS
SCOTTSBLUFF    CLOUDY    21  15  78 N13       29.92R WCI   9
ALLIANCE       CLOUDY    19  16  88 N16       29.90R FOG     WCI   4
CHADRON        LGT SNOW  22  19  89 N5        29.97S FOG     WCI  16
KIMBALL        LGT SNOW  19  19  97 N10       29.86R WCI   8
SIDNEY         LGT SNOW  19  17  92 N13       29.88R FOG     WCI   6
$$

NEZ057>060-069>072-079>082-241200-
SOUTHWEST NEBRASKA

CITY           SKY/WX    TMP DP  RH WIND       PRES   REMARKS
NORTH PLATTE   CLOUDY    24  20  84 N18G24    29.84R FOG     WCI  10
IMPERIAL       LGT SNOW  22  18  85 N23       29.86R FOG     WCI   6
LEXINGTON      LGT SNOW  25  21  87 N28G33    29.80R WCI   8
MCCOOK         LGT SNOW  24  21  88 N18G29    29.81F FOG     WCI  10
OGALLALA       LGT SNOW  24  20  83 N23       29.88R WCI   9
$$

NEZ005>010-023>029-035>040-094-241200-
NORTH CENTRAL NEBRASKA

CITY           SKY/WX    TMP DP  RH WIND       PRES   REMARKS
VALENTINE      CLOUDY    22  18  85 N20       29.94R FOG     WCI   7
AINSWORTH      LGT SNOW  22  20  95 N28G35    29.91R WCI   4
BROKEN BOW     FOG       23  21  92 N24G32    29.81R VSB 3/4 WCI   7
O`NEILL        CLOUDY    22  20  93 N28G33    29.88R WCI   4
ORD            FOG       23  19  85 N22G35    29.81R VSB 3/4 WCI   8
THEDFORD       CLOUDY    24  22  91 N21G30    29.88R WCI   9
$$

NEZ041-046>049-061>064-073>077-083>087-241200-
SOUTH CENTRAL NEBRASKA

CITY           SKY/WX    TMP DP  RH WIND       PRES   REMARKS
GRAND ISLAND   LGT SNOW  25  24  96 N17       29.76R FOG     WCI  12
AURORA         LGT SNOW  27  25  94 N18G24    29.74R WCI  14
HASTINGS       LGT SNOW  27  24  89 N24       29.75R FOG     WCI  12
HEBRON         CLOUDY    30  28  93 N14G20    29.70R FOG     WCI  20
HOLDREGE       LGT SNOW  25  23  92 N12       29.77S WCI  14
KEARNEY *      CLOUDY    27  21  80 N16G23    29.78R WCI  14
YORK           LGT SNOW  28  28 100 N23G31    29.71R WCI  14
$$

NEZ011>018-030>034-042>045-241200-
NORTHEAST NEBRASKA

CITY           SKY/WX    TMP DP  RH WIND       PRES   REMARKS
NORFOLK        FOG       25  22  88 N18G30    29.76R VSB 1   WCI  11
ALBION         CLOUDY    26  21  83 N21G30    29.78R WCI  11
BLAIR          LGT SNOW  30  29  94 N18G24    29.64R WCI  18
FREMONT        LGT SNOW  30  29  97 N13G23    29.69R WCI  20
TEKAMAH        LGT SNOW  29  26  89 N31       29.69R FOG     WCI  13
WAYNE          LGT SNOW  26  25  94 N23       29.77R VSB 1   WCI  11
$$

NEZ050>053-065>068-078-088>093-241200-
SOUTHEAST NEBRASKA

CITY           SKY/WX    TMP DP  RH WIND       PRES   REMARKS
LINCOLN        LGT SNOW  31  29  92 N21G26    29.69R FOG     WCI  18
OMAHA EPPLEY   LGT SNOW  32  28  85 N20       29.65R VSB 1   WCI  20
BEATRICE       LGT RAIN  33  32  99 N14       29.65S WCI  23
FALLS CITY     CLOUDY    36  33  89 NW12      29.59R WCI  28
NEBRASKA CITY  CLOUDY    34  34 100 N14G21    29.61R FOG     WCI  24
PLATTSMOUTH    DRIZZLE   32  29  88 N13G21    29.62R WCI  22
$$

NEZ044-045-051>053-067-241200-
OMAHA AREA

CITY           SKY/WX    TMP DP  RH WIND       PRES   REMARKS
OMAHA EPPLEY   LGT SNOW  32  28  85 N20       29.65R VSB 1   WCI  20
BLAIR          LGT SNOW  30  29  94 N18G24    29.64R WCI  18
FREMONT        LGT SNOW  30  29  97 N13G23    29.69R WCI  20
MILLARD        LGT SNOW  33  32  93 N7G23     29.66R WCI  27
OFFUTT AFB     FLURRIES  32  29  90 N13G20    29.63R WCI  22
PLATTSMOUTH    DRIZZLE   32  29  88 N13G21    29.62R WCI  22
WAHOO          CLOUDY    30  28  91 N24G30    29.69R FOG     WCI  16
$$




USA.gov is the U.S. government's official web portal to all federal, state and local government web resources and services.